sat.trackr.live / text

‹ back to catalog

KUIPER-00364

NORAD 68867 · 2026-095D

PAYLOAD ACTIVE UNKNOWN

§ Identity

Operator
Country
US
Launch date
2026-04-28
Launch site
AFETR
Launch vehicle
Mass (kg)
RCS (m²)

External: N2YO · Heavens-Above · Gunter

§ Orbital elements

Epoch: 2026-09-19T07:22:39.114624Z

Period
97.30 min
Inclination
51.9036°
Eccentricity
0.0001422
Mean motion
14.79928199 rev/d
Perigee alt
628.6 km
Apogee alt
630.5 km
Semi-major
7,007.7 km
B*
4.8188e-5
RAAN
189.4929°
Arg perigee
56.5156°
Mean anomaly
303.5943°
Rev number
2,162

§ Raw data

KUIPER-003641 68867U 26095D   26262.30739716  .00000146  00000+0  48188-4 0  99942 68867  51.9036 189.4929 0001422  56.5156 303.5943 14.79928199 21627

JSON: /api/v1/satellites/68867 · /tle

For live sub-satellite position, see the globe view (requires WebGL).

§ Visibility from observer

Set your observer location to see the next 7 days of passes ≥ 10°. The values pass through the URL so the page stays shareable.

No JS? Fill the form by hand. The geolocation button needs JavaScript.